Whitefield, NH

12:56 AM EDT on June 27, 2017 (GMT -0400)
Mount Washington Regional

Weather History for KHIE - December, 2013

Change the Weather History Date:

Friday, December 6, 2013

  Actual Average Record
Temperature  
Mean Temperature 36 °F -  
Max Temperature 43 °F 33 °F 62 °F (2001)
Min Temperature 30 °F 15 °F -5 °F (2007)
Degree Days  
Heating Degree Days 28    
Moisture  
Dew Point 34 °F    
Average Humidity 86    
Maximum Humidity 96    
Minimum Humidity 61    
Precipitation  
Precipitation 0.34 in - - ()
Sea Level Pressure  
Sea Level Pressure 29.95 in    
Wind  
Wind Speed 2 mph (West)    
Max Wind Speed 8 mph    
Max Gust Speed -    
Visibility 5 miles    
Events Fog , Rain    
Averages and records for this station are not official NWS values.
T = Trace of Precipitation, MM = Missing Value Source: NWS Daily Summary

Daily Weather History Graph

Daily Weather History Graph

Search for Another Location

Airport or City:

Trip Planner

Search our weather history database for the weather conditions in past years. The results will help you decide how hot, cold, wet, or windy it might be!

Date:

Astronomy

Dec. 06, 2013 Rise Set
Actual Time 7:07 AM EST 4:06 PM EST
Civil Twilight 6:34 AM EST 4:39 PM EST
Nautical Twilight 5:58 AM EST 5:16 PM EST
Astronomical Twilight 5:22 AM EST 5:51 PM EST
Moon 10:05 AM EST (12/6) 8:41 PM EST (12/6)
Length of Visible Light 10h 05m
Length of Day
8h 59m
Waxing Crescent, 19% of the Moon is Illuminated
Dec 6
Waxing Crescent
Dec 9
First Quarter
Dec 17
Full
Dec 25
Last Quarter
Jan 1
New

Hourly Weather History & Observations

Time (EST) Temp. Windchill Dew Point Humidity Pressure Visibility Wind Dir Wind Speed Gust Speed Precip Events Conditions
12:35 AM 39.0 °F - 36.0 °F 89% 29.86 in 2.5 mi Calm Calm - N/A   Overcast
12:43 AM 39.0 °F - 36.0 °F 89% 29.85 in 1.2 mi Calm Calm - N/A   Overcast
12:52 AM 39.0 °F - 37.0 °F 93% 29.89 in 1.2 mi Calm Calm - N/A   Overcast
1:09 AM 37.9 °F - 36.0 °F 93% 29.86 in 1.2 mi Calm Calm - N/A   Overcast
1:20 AM 37.9 °F - 35.1 °F 89% 29.85 in 1.0 mi Calm Calm - N/A   Overcast
1:35 AM 37.9 °F - 36.0 °F 93% 29.84 in 0.5 mi Calm Calm - N/A Fog Fog
1:49 AM 39.2 °F 35.0 °F 35.6 °F 87% 29.87 in 1.2 mi WNW 5.8 mph - N/A   Overcast
1:52 AM 39.0 °F 35.7 °F 37.0 °F 93% 29.90 in 1.8 mi WNW 4.6 mph - N/A   Overcast
1:59 AM 39.9 °F - 37.9 °F 93% 29.87 in 2.0 mi Calm Calm - N/A   Overcast
2:06 AM 39.0 °F 35.7 °F 37.0 °F 93% 29.87 in 1.2 mi ESE 4.6 mph - N/A   Overcast
2:14 AM 39.0 °F 35.7 °F 37.9 °F 96% 29.88 in 1.0 mi South 4.6 mph - 0.01 in Rain Light Rain
2:22 AM 39.9 °F 37.8 °F 37.9 °F 93% 29.87 in 1.5 mi SSW 3.5 mph - 0.01 in Rain Light Rain
2:41 AM 39.9 °F - 37.0 °F 89% 29.88 in 1.0 mi Calm Calm - 0.02 in Rain Light Rain
2:52 AM 39.9 °F - 37.0 °F 89% 29.92 in 0.8 mi Calm Calm - 0.02 in Rain Light Rain
3:10 AM 39.0 °F - 37.0 °F 93% 29.88 in 0.8 mi Calm Calm - 0.01 in Rain Light Rain
3:20 AM 39.0 °F - 37.0 °F 93% 29.89 in 1.0 mi Calm Calm - 0.01 in Rain Light Rain
3:28 AM 39.0 °F - 37.0 °F 93% 29.89 in 0.8 mi Calm Calm - 0.03 in Rain Light Rain
3:45 AM 39.0 °F - 37.0 °F 93% 29.88 in 1.2 mi Calm Calm - 0.05 in Rain Light Rain
3:52 AM 39.9 °F - 37.9 °F 93% 29.92 in 1.2 mi Calm Calm - 0.07 in Rain Rain
3:58 AM 39.9 °F 37.8 °F 37.9 °F 93% 29.89 in 1.0 mi ENE 3.5 mph - 0.01 in Rain Rain
4:08 AM 39.9 °F 37.8 °F 37.9 °F 93% 29.90 in 1.2 mi Variable 3.5 mph - 0.02 in Rain Light Rain
4:17 AM 42.1 °F 38.4 °F 37.9 °F 85% 29.90 in 3.0 mi North 5.8 mph - 0.04 in Rain Light Rain
4:28 AM 43.0 °F - 37.9 °F 82% 29.92 in 6.0 mi Calm Calm - 0.04 in Rain Light Rain
4:52 AM 39.9 °F - 37.9 °F 93% 29.93 in 4.0 mi Calm Calm - 0.06 in Rain Light Rain
4:57 AM 39.9 °F 37.8 °F 37.9 °F 93% 29.89 in 2.5 mi SE 3.5 mph - 0.01 in Rain Light Rain
5:32 AM 41.0 °F - 37.9 °F 89% 29.92 in 3.0 mi Calm Calm - 0.07 in Rain Light Rain
5:41 AM 41.0 °F - 39.0 °F 93% 29.92 in 3.0 mi Calm Calm - 0.08 in Rain Light Rain
5:52 AM 39.0 °F 36.8 °F 37.0 °F 93% 29.96 in 1.8 mi WNW 3.5 mph - 0.10 in Rain Rain
6:18 AM 39.9 °F 37.8 °F 37.9 °F 93% 29.93 in 2.0 mi West 3.5 mph - 0.05 in Rain Light Rain
6:37 AM 39.9 °F - 37.9 °F 93% 29.91 in 4.0 mi Calm Calm - 0.06 in Rain Light Rain
6:52 AM 39.9 °F 36.7 °F 37.0 °F 89% 29.95 in 4.0 mi NW 4.6 mph - 0.07 in Rain Light Rain
7:00 AM 39.0 °F 34.0 °F 36.0 °F 89% 29.92 in 5.0 mi North 6.9 mph - 0.00 in Rain Light Rain
7:09 AM 39.0 °F 35.7 °F 36.0 °F 89% 29.93 in 7.0 mi NNE 4.6 mph - 0.00 in Rain Light Rain
7:16 AM 37.9 °F 35.5 °F 35.1 °F 89% 29.93 in 7.0 mi NNE 3.5 mph - 0.00 in Rain Light Rain
7:52 AM 37.9 °F 34.4 °F 35.1 °F 89% 30.00 in 5.0 mi NW 4.6 mph - 0.00 in Rain Light Rain
8:10 AM 37.0 °F - 35.1 °F 93% 29.97 in 4.0 mi Calm Calm - 0.01 in Rain Light Rain
8:24 AM 37.0 °F 34.5 °F 35.1 °F 93% 29.97 in 4.0 mi South 3.5 mph - 0.01 in Rain Light Rain
8:47 AM 37.4 °F - 35.6 °F 93% 29.97 in 3.0 mi Calm Calm - 0.02 in Rain Light Rain
8:52 AM 37.9 °F 35.5 °F 35.1 °F 89% 30.01 in 4.0 mi SW 3.5 mph - 0.02 in Rain Light Rain
9:13 AM 39.0 °F 34.8 °F 36.0 °F 89% 29.97 in 8.0 mi SW 5.8 mph - 0.00 in   Overcast
9:52 AM 37.9 °F 33.5 °F 33.1 °F 83% 30.04 in 10.0 mi WSW 5.8 mph - 0.00 in   Overcast
10:52 AM 39.0 °F 35.7 °F 33.1 °F 79% 30.01 in 10.0 mi West 4.6 mph - N/A   Overcast
11:03 AM 37.9 °F - 33.1 °F 83% 29.97 in 10.0 mi Calm Calm - N/A   Overcast
11:12 AM 37.9 °F 34.4 °F 33.1 °F 83% 29.97 in 10.0 mi West 4.6 mph - N/A   Overcast
11:20 AM 37.9 °F 35.5 °F 33.1 °F 83% 29.97 in 10.0 mi WNW 3.5 mph - N/A   Overcast
11:52 AM 37.9 °F 33.5 °F 30.0 °F 73% 30.00 in 10.0 mi WNW 5.8 mph - N/A   Overcast
12:52 PM 37.0 °F 31.0 °F 28.0 °F 70% 30.03 in 10.0 mi West 8.1 mph - N/A   Overcast
1:52 PM 37.0 °F 33.3 °F 28.0 °F 70% 30.02 in 10.0 mi WNW 4.6 mph - N/A   Scattered Clouds
2:52 PM 37.0 °F 32.4 °F 28.0 °F 70% 30.03 in 10.0 mi West 5.8 mph - N/A   Clear
3:52 PM 35.1 °F 32.2 °F 26.1 °F 70% 30.03 in 10.0 mi SW 3.5 mph - N/A   Clear
4:52 PM 34.0 °F 31.0 °F 26.1 °F 73% 30.04 in 10.0 mi WSW 3.5 mph - N/A   Clear
5:52 PM 34.0 °F 31.0 °F 25.0 °F 70% 30.05 in 10.0 mi SW 3.5 mph - N/A   Clear
6:52 PM 33.1 °F - 27.0 °F 78% 30.08 in 10.0 mi Calm Calm - N/A   Clear
7:52 PM 33.1 °F 28.7 °F 24.1 °F 70% 30.09 in 10.0 mi WSW 4.6 mph - N/A   Clear
8:52 PM 32.0 °F 28.7 °F 26.1 °F 79% 30.12 in 10.0 mi WSW 3.5 mph - N/A   Overcast
9:52 PM 33.1 °F 30.0 °F 21.0 °F 61% 30.13 in 10.0 mi SW 3.5 mph - N/A   Overcast
10:52 PM 30.9 °F - 26.1 °F 82% 30.12 in 10.0 mi Calm Calm - N/A   Overcast
11:52 PM 32.0 °F - 23.0 °F 69% 30.10 in 10.0 mi Calm Calm - N/A   Overcast